sat.trackr.live / text

‹ back to catalog

STARLINK-37682

NORAD 69209 · 2026-114AD

PAYLOAD ACTIVE UNKNOWN

§ Identity

Operator
Country
US
Launch date
2026-05-25
Launch site
AFETR
Launch vehicle
Mass (kg)
RCS (m²)

Purposes: comms

External: N2YO · Heavens-Above · Gunter

§ Orbital elements

Epoch: 2026-09-20T00:02:18.304800Z

Period
93.85 min
Inclination
53.1575°
Eccentricity
0.0000846
Mean motion
15.34400189 rev/d
Perigee alt
462.1 km
Apogee alt
463.3 km
Semi-major
6,840.8 km
B*
5.2428e-4
RAAN
115.7487°
Arg perigee
114.6255°
Mean anomaly
245.4836°
Rev number
1,937

§ Raw data

STARLINK-376821 69209U 26114AD  26263.00160075  .00017379  00000+0  52428-3 0  99982 69209  53.1575 115.7487 0000846 114.6255 245.4836 15.34400189 19376

JSON: /api/v1/satellites/69209 · /tle

For live sub-satellite position, see the globe view (requires WebGL).

§ Visibility from observer

Set your observer location to see the next 7 days of passes ≥ 10°. The values pass through the URL so the page stays shareable.

No JS? Fill the form by hand. The geolocation button needs JavaScript.